AirNav  
 
 1389 users online  

NC15 Raeford Rhyne Airpark
Statesville, North Carolina, USA

GOING TO STATESVILLE?


FAA INFORMATION EFFECTIVE 25 FEBRUARY 2021

Location

FAA Identifier: NC15
Lat/Long: 35-57-25.4790N 080-58-44.2740W
35-57.424650N 080-58.737900W
35.9570775,-80.9789650
(estimated)
Elevation: 1140 ft. / 347 m (estimated)
Variation: 05W (1985)
From city: 11 miles N of STATESVILLE, NC
Time zone: UTC -5 (UTC -4 during Daylight Saving Time)
Zip code: 28625

Airport Operations

Airport use: Private use. Permission required prior to landing
Activation date: 02/1969
Control tower: no
ARTCC: ATLANTA CENTER
FSS: RALEIGH FLIGHT SERVICE STATION
Attendance: UNATNDD
Wind indicator: yes
Segmented circle: no

Airport Communications

WX AWOS-3 at SVH (12 nm S): 119.225 (704-873-1978)
WX AWOS-3 at UKF (17 nm N): 126.625 (336-696-3788)

Nearby radio navigation aids

VOR radial/distance  VOR name  Freq  Var
BZMr073/13.8BARRETTS MOUNTAIN VOR/DME110.8006W

 
NDB name  Hdg/Dist  Freq  Var  ID
ZEPHYR218/24.532608WZEF --.. . ..-.
ASHEE157/33.141007WJUH .--- ..- ....
FIDDLERS073/36.839107WFIQ ..-. .. --.-

Airport Services

Parking: tiedowns
Airframe service: NONE
Powerplant service: NONE

Runway Information

Runway 2/20

Dimensions: 2500 x 200 ft. / 762 x 61 m
Surface: turf, in good condition
RUNWAY 2  RUNWAY 20
Traffic pattern: rightleft
Obstructions: 25 ft. trees, 200 ft. from runway, 8:1 slope to clear
ADDL OBSTN: ROAD 0' FROM THR BTN RWY 20 AND POWERLINE.
25 ft. pline, 50 ft. from runway

Airport Ownership and Management from official FAA records

Ownership: Privately-owned
Owner: JERRY RHYNE
449 MTN VIEW RD
STATESVILLE, NC 28625
Phone (704) 881-2763
Manager: JERRY PHYNE
449 MTN VIEW RD
STATESVILLE, NC 28625
Phone (704) 881-2763

Airport Operational Statistics

Aircraft based on the field: 1
Single engine airplanes: 1
    
Aircraft operations: 150/year *
67% local general aviation
33% transient general aviation
* for 12-month period ending 17 February 1986

Additional Remarks

HOT AIR BALLOON ACTIVITY ON RWY & SURROUNDING SITE.
FOR CD CTC ATLANTA ARTCC AT 770-210-7692.

Instrument Procedures

There are no published instrument procedures at NC15.

Some nearby airports with instrument procedures:

KSVH - Statesville Regional Airport (12 nm S)
KUKF - Wilkes County Airport (17 nm N)
14A - Lake Norman Airpark (21 nm S)
KZEF - Elkin Municipal Airport (22 nm NE)
KHKY - Hickory Regional Airport (24 nm SW)
 
Loc | Ops | Rwys | IFR | FBO | Links
Com | Nav | Svcs | Stats | Notes
Area around NC15 (Raeford Rhyne Airpark)
 
Road maps at: MapQuest Bing Google
 
Aerial photo
No photo
 
Sectional chart

 
Airport distance calculator
Flying to Raeford Rhyne Airpark? Find the distance to fly.

From to NC15

Sunrise and sunset
Times for 05-Mar-2021
 Local
(UTC-5)
 Zulu
(UTC)
Morning civil twilight06:2411:24
Sunrise06:5011:50
Sunset18:2123:21
Evening civil twilight18:4723:47

Current date and time
Zulu (UTC)  05-Mar-2021 16:58:00
Local (UTC-5)  05-Mar-2021 11:58:00
 
METAR
KSVH 
13nm S 
051635Z AUTO 01009KT 10SM CLR 09/M09 A3014 RMK AO2 T00901090
KUKF 
17nm N 
051655Z AUTO 33005KT 10SM CLR 08/M12 A3019 RMK AO2
KHKY 
23nm SW 
051653Z 04007KT 10SM CLR 11/M12 A3012 RMK AO2 SLP189 T01111122
TAF
KHKY 
23nm SW 
051123Z 0512/0612 02005KT P6SM SKC FM051600 35009KT P6SM FEW250 FM060700 35004KT P6SM BKN200
NOTAMs
Click for the latest NOTAMs
NOTAMs are issued by the DoD/FAA and will open in a separate window not controlled by AirNav.

 

 
 

Would you like to see your business listed on this page?

 If your business provides an interesting product or service to pilots, flight crews, aircraft, or users of the Raeford Rhyne Airpark, you should consider listing it here.  To start the listing process, click on the button below
 
Add a business
 

Other Pages about Raeford Rhyne Airpark

Update a link
 
Copyright © AirNav, LLC. All rights reserved. Privacy Policy  Contact